Location: St. Louis
(38.6270°N, 90.1994°W)
Time: 01:26:29
(UTC-06:00)

Transit 2A - Pass Details

Date: 07 December 2021
Orbit: 591 x 966 km, 66.7° (Epoch: 24 January)

Event Time Altitude Azimuth Distance (km) Brightness Sun altitude
Rises 08:05:04 0° 332° (NNW) 3,661 8.9 8.8°
Reaches altitude 10° 08:07:41 10° 334° (NNW) 2,705 8.3 9.2°
Maximum altitude 08:14:04 76° 60° (ENE) 967 6.8 10.2°
Drops below altitude 10° 08:20:04 10° 147° (SSE) 2,547 10.7 11.1°
Sets 08:22:28 0° 148° (SSE) 3,434 11.0 11.4°
